Location: Elk Horn Observatory
(36.6768°N, 80.8309°W)
Time: 18:12:35
(UTC-04:00)

Envisat - Pass Details

Date: 30 January 2019
Orbit: 764 x 766 km, 98.2° (Epoch: 19 April)

Event Time Altitude Azimuth Distance (km) Brightness Sun altitude
Rises 20:08:13 0° 199° (SSW) 3,213 6.5 -28.5°
Reaches altitude 10° 20:10:58 10° 214° (SW) 2,292 5.8 -29.1°
Maximum altitude 20:14:54 23° 265° (W) 1,593 5.3 -29.8°
Drops below altitude 10° 20:18:53 10° 317° (NW) 2,305 5.9 -30.6°
Sets 20:21:40 0° 332° (NNW) 3,236 6.6 -31.2°
